QPF
0.00 0.00 0.00 0.00 0.01 0.01 0.01 0.02 0.01 0.01 0.01 0.02 0.02 0.01 0.00 0.00 0.00 0.00 0.00 0.01 0.00 0.01 0.02 0.04 0.10 0.12 0.05 0.02 0.02 0.02 0.02 0.03 0.03 0.02 0.01 0.01 0.02 0.02 0.04 0.07 0.08 0.06 0.06 0.05
0.00 0.01 0.00 0.00 0.01 0.01 0.01 0.02 0.02 0.02 0.01 0.03 0.03 0.02 0.01 0.01 0.01 0.00 0.00 0.00 0.00 0.01 0.01 0.04 0.12 0.11 0.05 0.03 0.02 0.02 0.01 0.01 0.01 0.01 0.01 0.01 0.01 0.01 0.02 0.02 0.03 0.02 0.02 0.02
0.00 0.01 0.00 0.00 0.01 0.01 0.01 0.01 0.01 0.01 0.02 0.03 0.03 0.02 0.02 0.02 0.02 0.01 0.01 0.00 0.00 0.00 0.01 0.02 0.06 0.02 0.01 0.02 0.02 0.02 0.01 0.01 0.01 0.01 0.01 0.01 0.01 0.01 0.01 0.01 0.01 0.01 0.02 0.01
0.00 0.00 0.00 0.01 0.01 0.01 0.02 0.02 0.01 0.01 0.01 0.01 0.01 0.02 0.02 0.02 0.02 0.01 0.01 0.00 0.00 0.00 0.01 0.01 0.00 0.00 0.01 0.01 0.01 0.01 0.01 0.00 0.00 0.00 0.01 0.01 0.01 0.01 0.01 0.01 0.01 0.01 0.01 0.01
0.00 0.00 0.01 0.02 0.01 0.01 0.02 0.03 0.02 0.02 0.01 0.01 0.01 0.01 0.01 0.01 0.02 0.01 0.01 0.01 0.01 0.01 0.01 0.01 0.01 0.01 0.02 0.01 0.01 0.01 0.01 0.00 0.00 0.00 0.00 0.01 0.01 0.01 0.02 0.01 0.01 0.01 0.01 0.01
0.00 0.00 0.01 0.02 0.02 0.01 0.01 0.02 0.01 0.02 0.02 0.03 0.03 0.02 0.03 0.02 0.02 0.02 0.01 0.01 0.01 0.01 0.02 0.02 0.01 0.01 0.03 0.01 0.01 0.01 0.01 0.01 0.01 0.00 0.00 0.01 0.01 0.01 0.01 0.01 0.01 0.01 0.01 0.01
0.00 0.01 0.01 0.01 0.02 0.02 0.02 0.02 0.02 0.03 0.03 0.04 0.04 0.03 0.03 0.03 0.01 0.01 0.01 0.01 0.01 0.02 0.03 0.02 0.02 0.02 0.03 0.03 0.02 0.01 0.01 0.01 0.00 0.00 0.00 0.00 0.01 0.01 0.01 0.02 0.02 0.02 0.01 0.01
0.00 0.01 0.01 0.01 0.01 0.02 0.03 0.02 0.02 0.03 0.03 0.03 0.03 0.02 0.02 0.02 0.01 0.01 0.01 0.01 0.03 0.03 0.04 0.03 0.03 0.03 0.04 0.03 0.02 0.01 0.01 0.00 0.00 0.00 0.01 0.01 0.01 0.01 0.01 0.02 0.01 0.02 0.02 0.02
0.00 0.01 0.01 0.01 0.01 0.02 0.02 0.02 0.01 0.02 0.02 0.03 0.03 0.02 0.02 0.01 0.01 0.00 0.00 0.01 0.02 0.05 0.06 0.07 0.06 0.04 0.03 0.03 0.04 0.05 0.01 0.01 0.01 0.01 0.01 0.02 0.02 0.02 0.02 0.02 0.02 0.02 0.02 0.01
0.00 0.00 0.01 0.01 0.01 0.01 0.02 0.02 0.01 0.01 0.01 0.02 0.04 0.03 0.03 0.03 0.02 0.01 0.01 0.02 0.02 0.03 0.05 0.06 0.06 0.05 0.03 0.02 0.03 0.02 0.02 0.01 0.01 0.01 0.03 0.03 0.03 0.02 0.03 0.03 0.02 0.02 0.02 0.02
0.00 0.00 0.01 0.01 0.01 0.01 0.02 0.03 0.02 0.01 0.01 0.01 0.03 0.02 0.02 0.02 0.02 0.02 0.02 0.03 0.03 0.04 0.04 0.03 0.03 0.03 0.03 0.02 0.03 0.04 0.04 0.03 0.03 0.03 0.04 0.04 0.03 0.03 0.03 0.03 0.02 0.02 0.03 0.03
0.00 0.00 0.01 0.01 0.01 0.00 0.01 0.02 0.01 0.01 0.01 0.01 0.02 0.01 0.01 0.01 0.02 0.03 0.03 0.04 0.05 0.06 0.04 0.03 0.02 0.02 0.02 0.01 0.03 0.05 0.08 0.09 0.08 0.07 0.06 0.06 0.05 0.04 0.03 0.02 0.02 0.02 0.02 0.02
0.00 0.01 0.02 0.01 0.01 0.01 0.00 0.01 0.01 0.01 0.01 0.01 0.01 0.01 0.01 0.02 0.03 0.05 0.06 0.05 0.06 0.06 0.04 0.03 0.02 0.02 0.02 0.02 0.02 0.03 0.07 0.10 0.11 0.09 0.08 0.06 0.04 0.03 0.02 0.01 0.01 0.01 0.01 0.01
0.00 0.00 0.02 0.02 0.01 0.00 0.00 0.00 0.01 0.02 0.02 0.01 0.01 0.01 0.01 0.03 0.07 0.08 0.11 0.06 0.04 0.03 0.02 0.02 0.02 0.01 0.01 0.01 0.01 0.03 0.07 0.09 0.10 0.09 0.06 0.04 0.03 0.02 0.02 0.01 0.01 0.01 0.02 0.02
0.00 0.00 0.00 0.02 0.02 0.01 0.00 0.01 0.01 0.01 0.01 0.01 0.01 0.02 0.01 0.02 0.06 0.09 0.07 0.05 0.03 0.02 0.02 0.02 0.01 0.01 0.02 0.02 0.02 0.04 0.08 0.12 0.13 0.10 0.07 0.04 0.03 0.03 0.03 0.02 0.02 0.02 0.02 0.03
0.00 0.00 0.00 0.01 0.01 0.01 0.01 0.01 0.01 0.01 0.01 0.01 0.01 0.03 0.03 0.02 0.03 0.06 0.06 0.05 0.03 0.03 0.03 0.02 0.02 0.02 0.03 0.03 0.04 0.04 0.06 0.08 0.09 0.10 0.10 0.07 0.05 0.04 0.03 0.03 0.02 0.02 0.02 0.02
0.00 0.00 0.00 0.00 0.01 0.02 0.01 0.01 0.02 0.02 0.01 0.02 0.03 0.03 0.03 0.03 0.03 0.04 0.07 0.14 0.07 0.04 0.03 0.03 0.02 0.02 0.03 0.04 0.03 0.03 0.03 0.04 0.05 0.06 0.07 0.06 0.06 0.05 0.04 0.04 0.03 0.03 0.03 0.03
0.01 0.01 0.01 0.01 0.01 0.02 0.02 0.01 0.02 0.03 0.03 0.03 0.03 0.03 0.03 0.05 0.04 0.05 0.05 0.10 0.10 0.08 0.06 0.04 0.03 0.02 0.03 0.02 0.02 0.03 0.03 0.03 0.03 0.03 0.03 0.04 0.03 0.05 0.06 0.04 0.03 0.04 0.04 0.04
0.01 0.01 0.01 0.02 0.01 0.02 0.02 0.02 0.01 0.01 0.03 0.02 0.02 0.03 0.06 0.08 0.07 0.06 0.07 0.10 0.05 0.06 0.05 0.03 0.03 0.02 0.02 0.02 0.02 0.02 0.01 0.02 0.02 0.03 0.03 0.05 0.03 0.03 0.03 0.03 0.03 0.03 0.04 0.04
0.01 0.01 0.01 0.03 0.02 0.02 0.02 0.02 0.02 0.02 0.04 0.04 0.03 0.05 0.08 0.07 0.06 0.05 0.06 0.14 0.08 0.05 0.05 0.05 0.05 0.02 0.02 0.02 0.02 0.02 0.02 0.02 0.02 0.03 0.01 0.01 0.02 0.02 0.03 0.03 0.04 0.05 0.05 0.05
0.01 0.01 0.01 0.01 0.01 0.02 0.02 0.02 0.03 0.06 0.05 0.04 0.05 0.07 0.06 0.08 0.08 0.07 0.08 0.14 0.18 0.13 0.10 0.06 0.05 0.03 0.03 0.02 0.02 0.01 0.01 0.01 0.01 0.01 0.00 0.01 0.01 0.02 0.03 0.03 0.04 0.06 0.05 0.05
0.02 0.02 0.01 0.02 0.03 0.04 0.03 0.03 0.04 0.04 0.03 0.03 0.04 0.07 0.06 0.05 0.09 0.13 0.09 0.12 0.17 0.17 0.13 0.09 0.05 0.03 0.02 0.01 0.01 0.01 0.01 0.01 0.01 0.01 0.01 0.01 0.01 0.02 0.02 0.02 0.02 0.04 0.05 0.05
0.02 0.02 0.03 0.03 0.04 0.04 0.03 0.02 0.02 0.02 0.05 0.04 0.04 0.05 0.09 0.06 0.05 0.11 0.11 0.08 0.08 0.08 0.08 0.08 0.06 0.03 0.02 0.01 0.01 0.01 0.00 0.00 0.01 0.01 0.02 0.02 0.01 0.01 0.01 0.01 0.01 0.02 0.03 0.05
0.04 0.03 0.04 0.05 0.05 0.04 0.04 0.04 0.03 0.04 0.05 0.05 0.06 0.09 0.10 0.07 0.06 0.09 0.15 0.14 0.11 0.10 0.08 0.07 0.05 0.03 0.02 0.01 0.01 0.00 0.00 0.00 0.01 0.01 0.01 0.01 0.01 0.01 0.01 0.00 0.00 0.01 0.02 0.03
0.09 0.05 0.04 0.06 0.06 0.06 0.06 0.07 0.05 0.04 0.04 0.04 0.06 0.12 0.14 0.07 0.08 0.09 0.11 0.15 0.15 0.11 0.09 0.07 0.05 0.04 0.02 0.01 0.01 0.01 0.01 0.01 0.01 0.01 0.01 0.01 0.01 0.01 0.01 0.00 0.00 0.01 0.01 0.02
0.11 0.10 0.10 0.08 0.08 0.08 0.11 0.15 0.13 0.06 0.03 0.03 0.07 0.11 0.11 0.09 0.12 0.12 0.15 0.16 0.15 0.12 0.09 0.07 0.06 0.04 0.03 0.02 0.01 0.01 0.02 0.02 0.01 0.01 0.02 0.02 0.02 0.02 0.02 0.01 0.01 0.01 0.01 0.01
MSLP
1006.01 1006.96 1007.80 1008.51 1009.10 1009.60 1010.08 1010.58 1011.11 1011.67 1012.24 1012.75 1013.18 1013.48 1013.65 1013.68 1013.63 1013.54 1013.48 1013.47 1013.54 1013.69 1013.90 1014.13 1014.35 1014.54 1014.68 1014.79 1014.88 1015.00 1015.17 1015.40 1015.70 1016.05 1016.42 1016.75 1017.01 1017.16 1017.20 1017.12 1016.95 1016.74 1016.53 1016.35
1006.66 1007.39 1007.97 1008.44 1008.84 1009.23 1009.67 1010.21 1010.84 1011.52 1012.19 1012.78 1013.21 1013.46 1013.52 1013.43 1013.26 1013.09 1012.99 1013.02 1013.19 1013.48 1013.85 1014.23 1014.58 1014.84 1015.01 1015.10 1015.15 1015.21 1015.33 1015.54 1015.84 1016.22 1016.63 1017.02 1017.33 1017.51 1017.55 1017.46 1017.27 1017.02 1016.78 1016.60
1007.00 1007.49 1007.84 1008.11 1008.38 1008.72 1009.21 1009.86 1010.64 1011.47 1012.27 1012.92 1013.34 1013.51 1013.43 1013.17 1012.84 1012.54 1012.38 1012.42 1012.67 1013.10 1013.65 1014.21 1014.71 1015.09 1015.32 1015.43 1015.46 1015.47 1015.54 1015.72 1016.01 1016.40 1016.84 1017.26 1017.61 1017.83 1017.89 1017.80 1017.60 1017.35 1017.10 1016.90
1007.03 1007.31 1007.47 1007.60 1007.82 1008.20 1008.81 1009.64 1010.62 1011.65 1012.59 1013.30 1013.70 1013.76 1013.50 1013.03 1012.50 1012.03 1011.77 1011.78 1012.08 1012.63 1013.33 1014.07 1014.74 1015.25 1015.58 1015.73 1015.76 1015.75 1015.78 1015.92 1016.18 1016.56 1017.01 1017.46 1017.84 1018.10 1018.19 1018.13 1017.94 1017.70 1017.45 1017.25
1006.86 1006.93 1006.95 1007.01 1007.25 1007.74 1008.54 1009.61 1010.84 1012.09 1013.17 1013.95 1014.32 1014.25 1013.81 1013.11 1012.34 1011.67 1011.26 1011.21 1011.52 1012.14 1012.98 1013.87 1014.69 1015.34 1015.77 1015.98 1016.03 1016.01 1016.01 1016.11 1016.34 1016.70 1017.15 1017.61 1018.02 1018.31 1018.44 1018.42 1018.28 1018.06 1017.82 1017.63
1006.58 1006.49 1006.40 1006.45 1006.76 1007.42 1008.44 1009.76 1011.25 1012.71 1013.94 1014.78 1015.12 1014.94 1014.31 1013.39 1012.39 1011.52 1010.96 1010.81 1011.09 1011.74 1012.66 1013.67 1014.62 1015.38 1015.90 1016.18 1016.26 1016.24 1016.22 1016.29 1016.49 1016.82 1017.26 1017.73 1018.16 1018.49 1018.67 1018.70 1018.60 1018.42 1018.21 1018.02
1006.32 1006.09 1005.94 1006.00 1006.41 1007.23 1008.47 1010.02 1011.74 1013.38 1014.74 1015.62 1015.94 1015.67 1014.90 1013.80 1012.62 1011.58 1010.87 1010.62 1010.85 1011.50 1012.45 1013.52 1014.55 1015.40 1015.99 1016.33 1016.45 1016.44 1016.41 1016.46 1016.63 1016.94 1017.36 1017.84 1018.29 1018.65 1018.87 1018.95 1018.91 1018.77 1018.59 1018.43
1006.15 1005.81 1005.61 1005.71 1006.20 1007.16 1008.55 1010.28 1012.14 1013.90 1015.34 1016.26 1016.56 1016.24 1015.38 1014.19 1012.90 1011.75 1010.95 1010.62 1010.80 1011.42 1012.37 1013.46 1014.52 1015.41 1016.06 1016.44 1016.59 1016.61 1016.59 1016.63 1016.79 1017.09 1017.50 1017.96 1018.43 1018.81 1019.08 1019.21 1019.21 1019.11 1018.97 1018.82
1006.09 1005.67 1005.45 1005.57 1006.11 1007.14 1008.62 1010.41 1012.33 1014.13 1015.58 1016.50 1016.79 1016.46 1015.59 1014.39 1013.09 1011.93 1011.11 1010.76 1010.90 1011.49 1012.41 1013.47 1014.53 1015.42 1016.09 1016.50 1016.69 1016.74 1016.75 1016.81 1016.97 1017.26 1017.66 1018.13 1018.60 1019.00 1019.29 1019.45 1019.49 1019.44 1019.33 1019.20
1006.10 1005.65 1005.42 1005.55 1006.11 1007.15 1008.60 1010.36 1012.22 1013.95 1015.34 1016.22 1016.51 1016.20 1015.40 1014.28 1013.08 1012.01 1011.25 1010.93 1011.08 1011.64 1012.51 1013.53 1014.54 1015.41 1016.07 1016.50 1016.73 1016.83 1016.88 1016.98 1017.17 1017.47 1017.88 1018.34 1018.80 1019.20 1019.51 1019.69 1019.76 1019.73 1019.65 1019.54
1006.10 1005.67 1005.48 1005.62 1006.17 1007.15 1008.50 1010.12 1011.81 1013.38 1014.64 1015.44 1015.71 1015.46 1014.77 1013.82 1012.79 1011.89 1011.27 1011.05 1011.23 1011.78 1012.61 1013.56 1014.50 1015.33 1015.97 1016.42 1016.69 1016.85 1016.98 1017.13 1017.37 1017.70 1018.11 1018.57 1019.02 1019.41 1019.71 1019.90 1019.98 1019.98 1019.92 1019.84
1006.02 1005.68 1005.55 1005.74 1006.27 1007.17 1008.37 1009.78 1011.23 1012.57 1013.63 1014.30 1014.53 1014.33 1013.79 1013.03 1012.24 1011.56 1011.14 1011.05 1011.30 1011.86 1012.63 1013.51 1014.38 1015.15 1015.77 1016.23 1016.56 1016.79 1017.00 1017.24 1017.54 1017.91 1018.34 1018.79 1019.23 1019.60 1019.89 1020.07 1020.16 1020.18 1020.15 1020.10
1005.81 1005.61 1005.62 1005.89 1006.43 1007.25 1008.29 1009.45 1010.63 1011.68 1012.50 1013.01 1013.17 1013.01 1012.60 1012.05 1011.50 1011.07 1010.85 1010.91 1011.24 1011.80 1012.54 1013.34 1014.14 1014.86 1015.46 1015.94 1016.32 1016.64 1016.95 1017.28 1017.66 1018.08 1018.53 1018.98 1019.40 1019.75 1020.01 1020.19 1020.29 1020.33 1020.34 1020.33
1005.45 1005.46 1005.66 1006.06 1006.65 1007.42 1008.31 1009.25 1010.14 1010.90 1011.46 1011.77 1011.83 1011.68 1011.37 1011.00 1010.67 1010.46 1010.44 1010.63 1011.04 1011.62 1012.31 1013.05 1013.78 1014.45 1015.03 1015.54 1015.99 1016.41 1016.82 1017.25 1017.70 1018.18 1018.65 1019.10 1019.50 1019.83 1020.08 1020.26 1020.37 1020.44 1020.49 1020.54
1004.99 1005.24 1005.66 1006.23 1006.93 1007.69 1008.47 1009.22 1009.85 1010.33 1010.63 1010.74 1010.68 1010.50 1010.25 1010.00 1009.84 1009.81 1009.94 1010.25 1010.71 1011.30 1011.96 1012.64 1013.31 1013.95 1014.53 1015.08 1015.59 1016.10 1016.61 1017.14 1017.67 1018.19 1018.69 1019.14 1019.53 1019.85 1020.09 1020.27 1020.41 1020.53 1020.63 1020.74
1004.49 1004.97 1005.62 1006.39 1007.21 1008.01 1008.74 1009.33 1009.76 1010.00 1010.07 1009.98 1009.78 1009.53 1009.29 1009.12 1009.06 1009.15 1009.40 1009.78 1010.29 1010.87 1011.51 1012.15 1012.79 1013.40 1014.00 1014.58 1015.17 1015.76 1016.36 1016.97 1017.57 1018.14 1018.65 1019.11 1019.49 1019.80 1020.05 1020.25 1020.42 1020.59 1020.76 1020.94
1004.00 1004.68 1005.53 1006.47 1007.42 1008.28 1008.99 1009.49 1009.77 1009.82 1009.69 1009.43 1009.09 1008.76 1008.50 1008.35 1008.35 1008.51 1008.82 1009.26 1009.79 1010.38 1011.00 1011.62 1012.24 1012.86 1013.48 1014.11 1014.76 1015.42 1016.10 1016.77 1017.42 1018.02 1018.55 1019.01 1019.39 1019.70 1019.96 1020.19 1020.41 1020.64 1020.87 1021.12
1003.56 1004.36 1005.35 1006.42 1007.47 1008.38 1009.10 1009.54 1009.71 1009.64 1009.36 1008.97 1008.52 1008.12 1007.81 1007.66 1007.68 1007.87 1008.22 1008.69 1009.24 1009.84 1010.46 1011.09 1011.72 1012.36 1013.01 1013.69 1014.40 1015.12 1015.85 1016.57 1017.24 1017.86 1018.39 1018.85 1019.23 1019.55 1019.83 1020.10 1020.37 1020.66 1020.96 1021.27
1003.20 1004.02 1005.05 1006.17 1007.26 1008.21 1008.91 1009.33 1009.45 1009.30 1008.94 1008.46 1007.94 1007.49 1007.15 1006.99 1007.02 1007.23 1007.60 1008.10 1008.67 1009.30 1009.94 1010.59 1011.26 1011.93 1012.63 1013.35 1014.10 1014.87 1015.63 1016.37 1017.05 1017.67 1018.20 1018.65 1019.03 1019.37 1019.67 1019.98 1020.29 1020.63 1020.98 1021.34
1002.89 1003.64 1004.62 1005.70 1006.77 1007.70 1008.39 1008.79 1008.89 1008.71 1008.33 1007.82 1007.29 1006.82 1006.48 1006.32 1006.36 1006.60 1006.99 1007.52 1008.12 1008.78 1009.46 1010.16 1010.86 1011.59 1012.33 1013.09 1013.87 1014.66 1015.43 1016.17 1016.85 1017.45 1017.97 1018.41 1018.80 1019.14 1019.47 1019.80 1020.16 1020.53 1020.92 1021.30
1002.64 1003.24 1004.08 1005.05 1006.02 1006.89 1007.55 1007.94 1008.04 1007.88 1007.53 1007.06 1006.56 1006.12 1005.81 1005.69 1005.76 1006.02 1006.44 1006.99 1007.63 1008.33 1009.05 1009.79 1010.55 1011.31 1012.09 1012.88 1013.68 1014.47 1015.24 1015.96 1016.62 1017.20 1017.70 1018.14 1018.52 1018.87 1019.22 1019.57 1019.95 1020.34 1020.74 1021.13
1002.46 1002.85 1003.49 1004.29 1005.13 1005.90 1006.51 1006.90 1007.03 1006.93 1006.65 1006.26 1005.84 1005.48 1005.24 1005.16 1005.27 1005.56 1006.01 1006.58 1007.25 1007.97 1008.73 1009.50 1010.29 1011.08 1011.88 1012.69 1013.49 1014.27 1015.02 1015.72 1016.35 1016.91 1017.40 1017.82 1018.21 1018.56 1018.91 1019.28 1019.66 1020.06 1020.45 1020.83
1002.36 1002.54 1002.97 1003.58 1004.26 1004.92 1005.48 1005.86 1006.04 1006.03 1005.86 1005.59 1005.29 1005.03 1004.87 1004.86 1005.00 1005.31 1005.77 1006.35 1007.01 1007.74 1008.50 1009.28 1010.08 1010.88 1011.68 1012.48 1013.27 1014.03 1014.76 1015.43 1016.04 1016.58 1017.05 1017.47 1017.85 1018.21 1018.56 1018.92 1019.30 1019.68 1020.05 1020.41
1002.40 1002.38 1002.62 1003.04 1003.57 1004.13 1004.64 1005.04 1005.29 1005.38 1005.33 1005.20 1005.03 1004.89 1004.81 1004.85 1005.02 1005.33 1005.77 1006.32 1006.95 1007.64 1008.37 1009.13 1009.90 1010.68 1011.46 1012.23 1013.00 1013.74 1014.43 1015.08 1015.67 1016.20 1016.66 1017.08 1017.46 1017.82 1018.16 1018.51 1018.87 1019.22 1019.56 1019.88
1002.62 1002.46 1002.54 1002.81 1003.22 1003.70 1004.18 1004.60 1004.92 1005.12 1005.21 1005.21 1005.17 1005.12 1005.12 1005.19 1005.37 1005.65 1006.03 1006.51 1007.06 1007.68 1008.34 1009.03 1009.74 1010.47 1011.21 1011.94 1012.67 1013.37 1014.04 1014.67 1015.25 1015.77 1016.24 1016.66 1017.04 1017.40 1017.74 1018.07 1018.39 1018.71 1019.01 1019.29
1003.06 1002.82 1002.78 1002.95 1003.28 1003.71 1004.19 1004.64 1005.03 1005.33 1005.53 1005.65 1005.71 1005.74 1005.78 1005.86 1006.00 1006.22 1006.51 1006.89 1007.33 1007.83 1008.39 1008.98 1009.61 1010.26 1010.94 1011.61 1012.29 1012.96 1013.61 1014.22 1014.79 1015.31 1015.79 1016.22 1016.61 1016.96 1017.29 1017.59 1017.89 1018.16 1018.42 1018.66
Thickness
5836 5817 5804 5812 5818 5817 5810 5801 5796 5805 5821 5813 5802 5799 5805 5810 5809 5805 5803 5802 5801 5801 5804 5803 5802 5800 5797 5794 5791 5789 5787 5785 5783 5779 5776 5773 5771 5771 5771 5771 5770 5768 5766 5765
5811 5806 5825 5833 5831 5824 5813 5800 5798 5808 5822 5813 5800 5799 5808 5812 5811 5812 5810 5806 5805 5803 5802 5802 5801 5800 5798 5795 5792 5790 5789 5787 5785 5782 5779 5777 5774 5772 5771 5770 5769 5768 5766 5764
5804 5819 5837 5830 5821 5814 5809 5804 5802 5803 5813 5813 5800 5789 5798 5808 5813 5814 5815 5813 5811 5808 5804 5803 5802 5801 5800 5797 5795 5794 5791 5789 5787 5785 5781 5778 5774 5772 5769 5768 5767 5767 5766 5764
5810 5828 5830 5822 5817 5816 5801 5820 5818 5810 5793 5781 5792 5762 5784 5798 5802 5808 5811 5811 5812 5812 5810 5805 5804 5803 5802 5801 5800 5796 5793 5791 5789 5786 5782 5777 5772 5768 5768 5768 5767 5766 5765 5763
5806 5823 5822 5815 5820 5825 5816 5829 5822 5812 5793 5780 5784 5767 5776 5795 5793 5804 5812 5815 5816 5817 5814 5810 5809 5807 5807 5805 5802 5798 5795 5792 5790 5788 5784 5779 5774 5772 5770 5769 5767 5765 5765 5763
5813 5830 5830 5828 5835 5836 5832 5819 5807 5794 5779 5760 5775 5768 5769 5791 5804 5811 5817 5820 5820 5820 5819 5816 5814 5811 5808 5806 5803 5800 5796 5792 5791 5788 5784 5780 5776 5772 5769 5767 5765 5763 5763 5762
5796 5812 5829 5837 5822 5825 5819 5786 5758 5753 5744 5752 5777 5773 5777 5809 5822 5823 5822 5823 5824 5823 5820 5816 5813 5810 5807 5805 5803 5800 5796 5792 5790 5788 5785 5782 5778 5775 5771 5768 5765 5763 5760 5759
5771 5777 5812 5827 5820 5809 5807 5789 5757 5742 5740 5751 5772 5768 5792 5822 5829 5831 5830 5829 5827 5824 5822 5819 5817 5814 5811 5807 5804 5800 5796 5793 5791 5788 5785 5783 5780 5777 5773 5771 5767 5764 5761 5759
5770 5777 5817 5830 5834 5823 5805 5792 5791 5764 5757 5748 5756 5778 5801 5821 5822 5824 5825 5825 5824 5824 5823 5820 5818 5815 5812 5809 5806 5802 5797 5794 5791 5789 5786 5783 5780 5777 5774 5771 5768 5765 5762 5760
5786 5776 5801 5821 5828 5826 5820 5806 5777 5760 5741 5735 5751 5765 5775 5799 5808 5815 5818 5819 5822 5823 5821 5820 5818 5816 5813 5811 5808 5804 5799 5795 5792 5790 5786 5783 5780 5777 5774 5770 5766 5764 5762 5759
5788 5772 5783 5799 5798 5800 5805 5797 5779 5762 5758 5739 5735 5757 5803 5805 5812 5813 5815 5819 5821 5821 5819 5818 5817 5816 5813 5810 5806 5802 5798 5794 5791 5788 5785 5782 5779 5776 5773 5769 5766 5763 5760 5757
5783 5765 5760 5782 5808 5819 5810 5798 5780 5760 5754 5752 5746 5762 5817 5815 5817 5817 5816 5818 5820 5821 5820 5818 5815 5812 5809 5805 5803 5800 5796 5793 5790 5788 5784 5780 5777 5773 5770 5767 5764 5761 5758 5755
5779 5758 5744 5754 5773 5794 5797 5798 5790 5774 5759 5748 5744 5765 5812 5813 5812 5815 5815 5814 5815 5815 5815 5813 5811 5807 5805 5803 5800 5798 5795 5792 5789 5785 5780 5776 5773 5769 5766 5764 5762 5759 5755 5752
5785 5754 5746 5742 5755 5776 5784 5792 5793 5775 5755 5752 5759 5774 5793 5800 5804 5807 5810 5810 5809 5809 5810 5808 5805 5803 5802 5801 5798 5795 5792 5789 5785 5781 5777 5772 5769 5766 5763 5761 5758 5755 5752 5748
5773 5751 5758 5765 5778 5784 5784 5786 5789 5781 5774 5766 5770 5776 5788 5798 5804 5808 5809 5807 5804 5803 5804 5804 5801 5799 5798 5796 5794 5791 5788 5784 5781 5775 5771 5768 5766 5763 5759 5757 5754 5751 5748 5745
5757 5749 5753 5757 5772 5776 5775 5782 5786 5786 5784 5781 5780 5779 5796 5803 5804 5803 5805 5805 5801 5800 5802 5801 5799 5796 5793 5792 5789 5786 5782 5779 5776 5770 5765 5764 5761 5758 5754 5751 5749 5745 5742 5739
5741 5740 5733 5734 5755 5763 5751 5769 5778 5779 5786 5783 5773 5781 5794 5793 5796 5798 5801 5802 5801 5799 5799 5797 5795 5792 5790 5789 5787 5782 5778 5775 5770 5765 5761 5758 5755 5752 5749 5746 5742 5739 5736 5732
5736 5729 5720 5723 5736 5725 5750 5780 5785 5783 5784 5789 5789 5790 5793 5794 5797 5799 5801 5800 5798 5798 5796 5793 5792 5789 5787 5786 5783 5778 5774 5769 5764 5759 5756 5753 5750 5747 5744 5741 5737 5733 5730 5726
5739 5727 5714 5708 5711 5723 5752 5773 5778 5773 5769 5785 5785 5786 5788 5791 5789 5786 5795 5798 5797 5796 5794 5791 5789 5786 5783 5780 5777 5773 5767 5763 5758 5753 5750 5749 5746 5742 5739 5735 5731 5728 5723 5720
5730 5726 5712 5704 5706 5709 5738 5770 5784 5775 5754 5778 5782 5780 5781 5781 5764 5769 5786 5790 5790 5788 5787 5785 5784 5781 5776 5773 5771 5765 5759 5755 5751 5749 5747 5745 5742 5738 5733 5729 5726 5722 5718 5714
5707 5707 5703 5699 5701 5715 5747 5767 5773 5743 5747 5773 5778 5778 5777 5772 5772 5777 5782 5782 5782 5779 5778 5778 5775 5771 5767 5766 5763 5757 5753 5749 5747 5745 5742 5738 5735 5732 5728 5724 5720 5716 5712 5708
5694 5693 5693 5693 5694 5707 5748 5757 5750 5750 5765 5770 5774 5776 5774 5772 5774 5774 5772 5772 5772 5769 5768 5767 5763 5760 5759 5758 5755 5749 5745 5744 5742 5739 5735 5731 5728 5726 5723 5718 5713 5709 5705 5700
5692 5696 5696 5700 5705 5725 5741 5747 5755 5760 5761 5764 5767 5770 5769 5766 5765 5763 5761 5761 5761 5760 5758 5756 5752 5750 5749 5749 5747 5742 5739 5737 5735 5730 5726 5723 5720 5718 5715 5711 5706 5702 5698 5694
5692 5700 5700 5701 5711 5722 5732 5740 5747 5752 5755 5760 5764 5765 5764 5760 5758 5755 5753 5751 5750 5750 5748 5747 5744 5740 5738 5738 5738 5735 5732 5730 5726 5721 5717 5715 5712 5709 5707 5704 5700 5696 5692 5688
5683 5689 5690 5693 5704 5714 5723 5728 5735 5742 5748 5752 5755 5757 5756 5753 5749 5747 5745 5743 5742 5741 5739 5738 5736 5732 5730 5729 5728 5727 5725 5722 5717 5712 5709 5706 5704 5701 5698 5695 5692 5689 5686 5683
5677 5680 5681 5684 5697 5700 5706 5719 5728 5730 5734 5739 5742 5743 5745 5745 5741 5739 5737 5736 5735 5731 5729 5728 5726 5724 5722 5721 5719 5717 5716 5713 5708 5703 5700 5698 5695 5692 5689 5686 5682 5680 5678 5676